Regional Weather Roundup
Issued by NWS

Home | Current Version | Previous Version | Text Only | Print | Product List | Glossary Off
Versions: 1 2 3 4 5 6 7 8 9 10 11 12 13 14 15 16 17 18 19 20 21 22 23 24 25 26 27

000
ASUS45 KBOU 231207
RWRCO

WEATHER ROUNDUP FOR COLORADO
NATIONAL WEATHER SERVICE DENVER/BOULDER CO
500 AM MST THU FEB 23 2017

NOTE: "FAIR" INDICATES FEW OR NO CLOUDS BELOW 12000 FEET WITH NO
SIGNIFICANT WEATHER AND/OR OBSTRUCTIONS TO VISIBILITY.

COZ001>005-013-030-031-231300-
...NORTHWEST COLORADO...

CITY           SKY/WX    TMP DP  RH WIND       PRES   REMARKS
CRAIG          LGT SNOW  28  24  85 SW14      29.47F FOG     WCI  17
HAYDEN         CLOUDY    27  23  86 W16       29.44R WCI  14
MEEKER         LGT SNOW  26  24  92 W14       29.50R VSB 3/4 WCI  14
MOUNT WERNER   NOT AVBL
STEAMBOAT SPGS CLOUDY    31  27  83 W3        29.40F
WALDEN         NOT AVBL
$$

COZ006>008-011-231300-
...WEST CENTRAL VALLEYS...

CITY           SKY/WX    TMP DP  RH WIND       PRES   REMARKS
GRAND JUNCTION MOCLDY    36  27  69 NW16      29.56R
MONTROSE       LGT SNOW  34  31  88 W20G28    29.58R FOG     WCI  23
EAGLE          LGT RAIN  36  25  64 SW12      29.48R
RIFLE          LGT SNOW  33  31  92 W14       29.50S FOG     WCI  23
DELTA          CLOUDY    40  29  63 SW6       29.54S
NUCLA          LGT SNOW  32  28  86 W13G21    29.63R WCI  22
$$

COZ017>023-064>068-231300-
...SOUTHWEST COLORADO...

CITY           SKY/WX    TMP DP  RH WIND       PRES   REMARKS
DURANGO        CLOUDY    35  26  69 W10       29.62F WCI  27
CORTEZ         FLURRIES  34  31  88 W7        29.65R WCI  28
PAGOSA SPRINGS CLOUDY    37  17  46 SW24G37   29.60F
TELLURIDE      LGT SNOW  28  19  70 W14G23    29.57S WCI  17
WOLF CREEK PAS LGT SNOW  14  14 100 S40G63    29.55F WCI  -9
$$

COZ009-010-012-014-032>034-037-058>063-231300-
...CENTRAL COLORADO...

CITY           SKY/WX    TMP DP  RH WIND       PRES   REMARKS
ASPEN          LGT SNOW  29  26  89 S12       29.47F FOG     WCI  19
BUENA VISTA    CLOUDY    36  11  35 SE8       29.48S
COPPER MTN     LGT SNOW  21  10  63 MISG      29.51F
BERTHOUD PASS  HAZE      10   0  61 SE17G25   29.51F VSB<1/4 WCI  -7
COTTONWOOD PAS LGT SNOW  30  19  64 NW8       29.50F WCI  23
GUNNISON       LGT SNOW  27  25  93 S8        29.51F FOG     WCI  18
KREMMLING      CLOUDY    41  10  28 SW22G28   29.44R
LEADVILLE      CLOUDY    23  12  62 S15       29.49F WCI  10
MONARCH PASS   CLOUDY    18   9  68 SW41G49   29.59F WCI  -5
SALIDA         MOCLDY    39  11  31 S20       29.56F
SUNLIGHT       NOT AVBL
WILKERSON PASS CLOUDY    21   9  58 S9G18     29.53F WCI  11
$$

COZ069>075-231300-
...SAN LUIS VALLEY/SANGRE DE CRISTO MOUNTAINS...

CITY           SKY/WX    TMP DP  RH WIND       PRES   REMARKS
ALAMOSA        FAIR      36  15  42 SW21G36   29.60F
LA VETA PASS   CLOUDY    28  12  50 NE28G55   29.59S WCI  13
SAGUACHE       FAIR      34  12  40 SW20G25   29.54F WCI  22
$$

COZ035-036-038>040-231300-
...NORTHERN COLORADO FRONT RANGE...

CITY           SKY/WX    TMP DP  RH WIND       PRES   REMARKS
DENVER INTL AP CLOUDY    29  25  85 NE6       29.60F WCI  23
DMNS CITY PARK   N/A     29  25  83 NE8       29.60F WCI  22
AURORA         MOCLDY    23  23  99 CALM      29.60F
FRONT RANGE AP CLOUDY    30  27  86 E8G16     29.60F WCI  23
ERIE MUNI ARPT CLOUDY    32  27  82 NE7       29.63F WCI  26
BOULDER MUN AP CLOUDY    32  28  86 NE6       29.62F WCI  26
CENTENNIAL     CLOUDY    27  23  85 N7        29.59F WCI  19
BROOMFIELD     CLOUDY    32  28  86 NE9       29.61F WCI  24
FORT COLLINS   LGT RAIN  33  29  85 E9        29.63F WCI  25
LONGMONT       CLOUDY    35  28  75 NE7       29.64F WCI  30
$$

COZ041-046-047-076>085-087-088-231300-
...PIKES PEAK/PALMER DIVIDE AND SOUTHERN FOOTHILLS...

CITY           SKY/WX    TMP DP  RH WIND       PRES   REMARKS
COLO. SPRINGS  FAIR      30  20  66 N14       29.53F WCI  19
A. F. ACADEMY  FAIR      27  21  76 N16       29.53F WCI  15
SCHRIEVER AFB  FAIR      27  21  78 N17G24    29.54F WCI  14
ELLICOTT       FAIR     N/A N/A N/A N13       29.52F
FALCON         FAIR      26  22  85 N18G25    29.54F WCI  12
FORT CARSON    FAIR      31  21  65 N15       29.53F WCI  21
LIMON          FAIR      18  16  92 NW7       29.59S WCI   9
MONUMENT HILL  FOG       23  23 100 NW9       29.57F VSB 3/4 WCI  13
TRINIDAD       FAIR      43  20  39 W7        29.55F
$$

COZ042>045-048>051-090-091-231300-
...NORTHEAST COLORADO...

CITY           SKY/WX    TMP DP  RH WIND       PRES   REMARKS
GREELEY ARPT   FLURRIES  34  30  86 E14       29.64F WCI  24
AKRON          FOG       31  30  96 E18G26    29.61S VSB 1/4 WCI  19
BURLINGTON     FAIR      31  26  82 NE18      29.59F WCI  19
WRAY           NOT AVBL
STERLING       CLOUDY    32  32 100 NE10      29.65S FOG     WCI  24
HOLYOKE        CLOUDY    34  32  93 NE23      29.67F WCI  22
FORT MORGAN    LGT RAIN  32  31  94 E14       29.64F WCI  22
$$

COZ086-089-092>099-231300-
...SOUTHEAST COLORADO...

CITY           SKY/WX    TMP DP  RH WIND       PRES   REMARKS
PUEBLO         FAIR      34  19  54 S5        29.54S WCI  30
LA JUNTA       FAIR      31  17  56 CALM      29.54F
LAMAR          FAIR      30  21  69 NW5       29.52S WCI  25
SPRINGFIELD      N/A     41  25  53 SW9       29.54F
$$




USA.gov is the U.S. government's official web portal to all federal, state and local government web resources and services.